Regional Weather Roundup
Issued by NWS

Home | Current Version | Previous Version | Graphics & Text | Print | Product List | Glossary On
Versions: 1 2 3 4 5 6 7 8 9 10 11 12 13 14 15 16 17 18 19 20 21 22 23 24 25 26 27 28 29 30 31 32 33 34 35 36 37 38 39 40 41 42 43 44 45 46 47 48 49 50
000
ASUS43 KLOT 250112
RWRIL

ILLINOIS REGIONAL WEATHER ROUNDUP
NATIONAL WEATHER SERVICE CHICAGO/ROMEOVILLE IL
800 PM CDT SUN MAY 24 2015

NOTE: "FAIR" INDICATES FEW OR NO CLOUDS BELOW 12,000 FEET WITH NO
SIGNIFICANT WEATHER AND/OR OBSTRUCTIONS TO VISIBILITY.

* THESE STATIONS ARE NOT UNDER NWS QUALITY CONTROL. THEY ALSO MAY NOT
  REPORT WEATHER SUCH AS PRECIPITATION OR FOG.

ILZ001-002-007-009-015-016-024-250200-
NORTHWEST ILLINOIS

CITY           SKY/WX    TMP DP  RH WIND       PRES   REMARKS
MOLINE         LGT RAIN  72  67  84 SW6       29.85R
STERLING*      CLOUDY    70  66  88 NW5       29.88R
SAVANNA*       CLOUDY    69  67  92 E3        29.86S
$$

ILZ003-004-008-010-011-017-018-250200-
NORTH CENTRAL ILLINOIS

CITY           SKY/WX    TMP DP  RH WIND       PRES   REMARKS
ROCKFORD       CLOUDY    66  62  87 E10       29.89F FOG
FREEPORT*      LGT RAIN  65  64  97 E5        29.91R
ROCHELLE*      MOCLDY    69  67  93 E6        29.89F
DE KALB*       CLOUDY    67  64  90 SE13      29.91S
PERU*          CLOUDY    78  62  57 S15       29.88S HX  80
$$

ILZ005-006-012>014-019>023-250200-
NORTHEAST ILLINOIS

CITY           SKY/WX    TMP DP  RH WIND       PRES   REMARKS
CHICAGO-OHARE  MOCLDY    64  61  90 E7        29.93S
CHICAGO-MIDWAY MOCLDY    66  63  90 E6        29.94R
AURORA         PTCLDY    71  64  78 E10       29.91S
LANSING*       MOCLDY    77  58  51 S12       29.95R
JOLIET*        MOCLDY    75  66  73 SE5       29.91F
WAUKEGAN       MOCLDY    55  54  96 E5        29.94F FOG
DUPAGE AIRPORT PTCLDY    66  64  93 E7        29.92S FOG
KANKAKEE*      MOCLDY    78  62  57 S12G20    29.95S HX  80
WHEELING       MOCLDY    61  59  93 SE6       29.95S FOG
MORRIS*        MOCLDY    76  64  67 S10       29.90S
ROMEOVILLE*    MOCLDY    69  67  93 E6        29.92F
NORTHERLY ISL    N/A     59  56  89 NE1         N/A
$$

LMZ740>746-250200-
SOUTHERN LAKE MICHIGAN

STATION/POSITION SKY/WX   TEMP    WIND        PRES    VSBY  WAVE
                          AIR SEA DIR/SP/G                  HT/PER
                          (F)     (DEG/KT/KT) (MB)    (MI)  (FT/S)
SOUTHERN BUOY              48 38   40/  6/  8 1015.7F         1
HARRISON CRIB              56      70/  3/  7   N/A
BURNHAM HARBOR             59      10/  1/  3   N/A
CALUMET HARBOR             59      60/  3/  4   N/A
BURNS HARBOR               80     190/ 10/ 16 1014.6
MICHIGAN CITY              81     150/ 12/ 18   N/A
MICHIGAN CITY 6N           64 55  110/  4/  6   N/A           1
ST. JOSEPH                 69 56  180/ 10/ 10   N/A           0
$$

ILZ025>027-034>036-040-047-049-050-058-095>099-250200-
WEST-CENTRAL ILLINOIS

CITY           SKY/WX    TMP DP  RH WIND       PRES   REMARKS
QUINCY         RAIN      69  65  86 SW15      29.88R FOG
GALESBURG*     LGT RAIN  72  67  84 SW8       29.87R
MACOMB*        CLOUDY    70  67  91 S7        29.89R
JACKSONVILLE*  MOCLDY    81  64  55 S20G31    29.87S HX  82
PITTSFIELD*    CLOUDY    70  66  88 CALM      29.88S
$$

ILZ028>032-037-038-041>044-048-051>054-059>061-250200-
CENTRAL ILLINOIS

CITY           SKY/WX    TMP DP  RH WIND       PRES   REMARKS
PONTIAC        CLOUDY    81  63  54 S20G26    29.93R HX  83
BLOOMINGTON    MOCLDY    78  64  61 S22       29.93S HX  80
DECATUR        MOCLDY    80  62  54 S17G26    29.93F HX  81
PEORIA         MOCLDY    81  62  52 S14G25    29.88R HX  82
LACON*         CLOUDY    73  65  76 W7        29.89R
LINCOLN*       MOCLDY    81  61  50 S12G24    29.87S HX  82
SPRINGFIELD    MOCLDY    80  63  55 S20G28    29.89F HX  81
TAYLORVILLE    MOCLDY    77  63  61 S10G21    29.92S
$$

ILZ033-039-045-046-055>057-062-063-250200-
EAST-CENTRAL ILLINOIS

CITY           SKY/WX    TMP DP  RH WIND       PRES   REMARKS
CHAMPAIGN      MOCLDY    80  61  52 S20G29    29.95F HX  81
DANVILLE*      CLEAR     78  61  56 S14       29.95F
RANTOUL*       MOCLDY    82  62  50 S17G25    29.96S HX  82
MATTOON        MOCLDY    79  62  56 S17       29.96S HX  80
PARIS*         PTCLDY    79  62  55 SE16G23   29.99F HX  80
$$

ILZ079-100>102-250200-
SOUTHWEST ILLINOIS

CITY           SKY/WX    TMP DP  RH WIND       PRES   REMARKS
ALTON          MOCLDY    79  64  61 S16       29.91S HX  81
BELLEVILLE     CLOUDY    78  66  65 SE13      29.90S HX  80
CAHOKIA*       CLOUDY    79  65  62 S7        29.90S HX  81
SPARTA*        MOCLDY    78  65  64 SE9       29.93S HX  80
$$

ILZ064>066-069>071-074>076-080>082-084>086-088>090-092>094-250200-
SOUTH-CENTRAL ILLINOIS

CITY           SKY/WX    TMP DP  RH WIND       PRES   REMARKS
CARBONDALE     MOCLDY    80  64  58 SE15      29.94S HX  82
CAIRO*         PTCLDY    77  68  72 SE10      29.96S
EFFINGHAM*     MOCLDY    79  59  50 SE9       29.97F HX  80
MARION         MOCLDY    79  68  69 SE8       29.97S HX  81
MT. VERNON     MOCLDY    79  63  57 SE12G18   29.98R HX  80
CENTRALIA*     MOCLDY    78  64  61 SE15      29.95S HX  80
SALEM*         MOCLDY    82  63  53 S10G17    29.96S HX  83
METROPOLIS*    PTCLDY    79  67  66 SE10G16   29.98S HX  81
$$

ILZ067-068-072-073-078-083-087-091-250200-
SOUTHEAST ILLINOIS

CITY           SKY/WX    TMP DP  RH WIND       PRES   REMARKS
LAWRENCEVILLE  MOCLDY    79  63  57 SE13      30.01S HX  80
FLORA*         MOCLDY    79  64  60 SE16      29.98S HX  81
FAIRFIELD*     MOCLDY    80  66  62 SE12G20   29.97S HX  82
HARRISBURG*    MOCLDY    78  65  64 SE12      30.00S HX  80
ROBINSON*      MOCLDY    79  62  55 SE14      30.01S HX  80
CARMI*         MOCLDY    75  63  64 SE13      30.00S
$$

ABBREVIATIONS USED IN REMARKS
   TC - TEMPERATURE IN CELSIUS
  WCI - WIND CHILL INDEX
   HX - HEAT INDEX
  VSB - VISIBILITY
$$



USA.gov is the U.S. government's official web portal to all federal, state and local government web resources and services.